Time,TemperatureF,DewpointF,PressureIn,WindDirection,WindDirectionDegrees,WindSpeedMPH,WindSpeedGustMPH,Humidity,HourlyPrecipIn,Conditions,Clouds,dailyrainin,SoftwareType,DateUTC
2013-11-17 00:01:00,56.6,52.6,29.95,South,169,3.0,13.0,86,0.00,,OVC OVC///CB,0.00,WUHU216DAVISVP2,2013-11-17 05:01:00,
2013-11-17 00:06:00,56.8,52.5,29.96,SSW,207,4.0,8.0,85,0.00,,OVC OVC///CB,0.00,WUHU216DAVISVP2,2013-11-17 05:06:00,
2013-11-17 00:11:00,56.9,52.6,29.96,SE,138,3.0,8.0,85,0.00,,OVC OVC///CB,0.00,WUHU216DAVISVP2,2013-11-17 05:11:00,
2013-11-17 00:16:00,57.0,52.7,29.96,South,189,3.0,9.0,85,0.00,,OVC OVC///CB,0.00,WUHU216DAVISVP2,2013-11-17 05:16:00,
2013-11-17 00:21:00,56.9,52.6,29.96,SSE,162,4.0,9.0,85,0.00,,OVC OVC///CB,0.00,WUHU216DAVISVP2,2013-11-17 05:21:00,
2013-11-17 00:26:00,57.0,52.7,29.96,SSW,200,4.0,10.0,85,0.00,,OVC OVC///CB,0.00,WUHU216DAVISVP2,2013-11-17 05:26:00,
2013-11-17 00:31:00,57.0,52.7,29.96,SW,215,3.0,10.0,85,0.00,,OVC OVC///CB,0.00,WUHU216DAVISVP2,2013-11-17 05:31:00,
2013-11-17 00:36:00,57.0,52.7,29.96,South,184,4.0,10.0,85,0.00,,OVC OVC///CB,0.00,WUHU216DAVISVP2,2013-11-17 05:36:00,
2013-11-17 00:41:00,56.8,52.8,29.96,SSE,160,8.0,10.0,86,0.00,,OVC OVC///CB,0.00,WUHU216DAVISVP2,2013-11-17 05:41:00,
2013-11-17 00:46:00,56.7,53.0,29.96,SSE,167,2.0,9.0,87,0.00,,OVC OVC///CB,0.00,WUHU216DAVISVP2,2013-11-17 05:46:00,
2013-11-17 00:51:00,56.8,53.1,29.96,SSW,212,5.0,10.0,87,0.00,,OVC OVC///CB,0.00,WUHU216DAVISVP2,2013-11-17 05:51:00,
2013-11-17 00:56:00,57.0,53.0,29.96,SSW,195,5.0,10.0,86,0.00,,OVC OVC///CB,0.00,WUHU216DAVISVP2,2013-11-17 05:56:00,
2013-11-17 01:01:00,57.2,53.2,29.96,South,181,6.0,10.0,86,0.00,,OVC OVC///CB,0.00,WUHU216DAVISVP2,2013-11-17 06:01:00,
2013-11-17 01:06:00,57.2,53.2,29.96,SW,221,4.0,10.0,86,0.00,,OVC OVC///CB,0.00,WUHU216DAVISVP2,2013-11-17 06:06:00,
2013-11-17 01:11:00,57.3,53.6,29.95,SW,221,5.0,10.0,87,0.00,,OVC OVC///CB,0.00,WUHU216DAVISVP2,2013-11-17 06:11:00,
2013-11-17 01:16:00,57.1,53.7,29.95,South,176,6.0,16.0,88,0.00,,OVC OVC///CB,0.00,WUHU216DAVISVP2,2013-11-17 06:16:00,
2013-11-17 01:21:00,56.9,53.8,29.95,South,179,4.0,16.0,89,0.01,,OVC OVC///CB,0.01,WUHU216DAVISVP2,2013-11-17 06:21:00,
2013-11-17 01:26:00,56.6,53.8,29.94,South,179,1.0,16.0,90,0.01,,OVC OVC///CB,0.01,WUHU216DAVISVP2,2013-11-17 06:26:00,
2013-11-17 01:31:00,56.2,53.7,29.94,SSW,197,9.0,16.0,91,0.01,,OVC OVC///CB,0.01,WUHU216DAVISVP2,2013-11-17 06:31:00,
2013-11-17 01:36:00,56.2,53.7,29.94,SSE,168,3.0,12.0,91,0.01,,OVC OVC///CB,0.01,WUHU216DAVISVP2,2013-11-17 06:36:00,
2013-11-17 01:41:00,56.1,53.6,29.93,SSW,195,1.0,12.0,91,0.01,,OVC OVC///CB,0.01,WUHU216DAVISVP2,2013-11-17 06:41:00,
2013-11-17 01:46:00,56.0,53.5,29.93,SSE,153,4.0,12.0,91,0.01,,OVC OVC///CB,0.01,WUHU216DAVISVP2,2013-11-17 06:46:00,
2013-11-17 01:51:00,56.0,53.5,29.93,South,174,4.0,12.0,91,0.01,,OVC OVC///CB,0.01,WUHU216DAVISVP2,2013-11-17 06:51:00,
2013-11-17 01:56:00,56.0,53.5,29.93,SSE,162,3.0,9.0,91,0.01,,OVC OVC///CB,0.01,WUHU216DAVISVP2,2013-11-17 06:56:00,
2013-11-17 02:01:00,55.9,53.4,29.93,SSW,203,3.0,9.0,91,0.01,,OVC OVC///CB,0.01,WUHU216DAVISVP2,2013-11-17 07:01:00,
2013-11-17 02:06:00,55.8,53.3,29.93,SSE,159,4.0,9.0,91,0.01,,OVC OVC///CB,0.01,WUHU216DAVISVP2,2013-11-17 07:06:00,
2013-11-17 02:11:00,55.9,53.4,29.94,South,185,4.0,9.0,91,0.01,,OVC OVC///CB,0.01,WUHU216DAVISVP2,2013-11-17 07:11:00,
2013-11-17 02:16:00,56.0,53.5,29.93,SSE,165,2.0,9.0,91,0.01,,OVC OVC///CB,0.01,WUHU216DAVISVP2,2013-11-17 07:16:00,
2013-11-17 02:21:00,56.1,53.6,29.93,SSW,198,2.0,9.0,91,0.00,,OVC OVC///CB,0.01,WUHU216DAVISVP2,2013-11-17 07:21:00,
2013-11-17 02:26:00,56.1,53.6,29.93,SSE,165,3.0,9.0,91,0.00,,OVC OVC///CB,0.01,WUHU216DAVISVP2,2013-11-17 07:26:00,
2013-11-17 02:31:00,56.1,53.6,29.93,SW,215,6.0,8.0,91,0.00,,OVC OVC///CB,0.01,WUHU216DAVISVP2,2013-11-17 07:31:00,
2013-11-17 02:36:00,56.0,53.8,29.93,South,180,3.0,10.0,92,0.01,,OVC OVC///CB,0.02,WUHU216DAVISVP2,2013-11-17 07:36:00,
2013-11-17 02:41:00,55.7,53.8,29.93,South,188,2.0,10.0,93,0.01,,OVC OVC///CB,0.02,WUHU216DAVISVP2,2013-11-17 07:41:00,
2013-11-17 02:46:00,55.4,53.5,29.93,SE,127,3.0,11.0,93,0.01,,OVC OVC///CB,0.02,WUHU216DAVISVP2,2013-11-17 07:46:00,
2013-11-17 02:51:00,55.2,53.6,29.92,SE,136,7.0,11.0,94,0.01,,OVC OVC///CB,0.02,WUHU216DAVISVP2,2013-11-17 07:51:00,
2013-11-17 02:56:00,55.1,53.5,29.92,SSE,165,4.0,11.0,94,0.01,,OVC OVC///CB,0.02,WUHU216DAVISVP2,2013-11-17 07:56:00,
2013-11-17 03:01:00,54.9,53.6,29.91,SE,142,3.0,11.0,95,0.01,,OVC OVC///CB,0.02,WUHU216DAVISVP2,2013-11-17 08:01:00,
2013-11-17 03:06:00,54.8,53.5,29.91,SSW,197,3.0,10.0,95,0.01,,OVC OVC///CB,0.02,WUHU216DAVISVP2,2013-11-17 08:06:00,
2013-11-17 03:11:00,54.8,53.5,29.91,SSE,160,3.0,9.0,95,0.01,,OVC OVC///CB,0.02,WUHU216DAVISVP2,2013-11-17 08:11:00,
2013-11-17 03:16:00,54.8,53.5,29.91,SSW,203,6.0,9.0,95,0.01,,OVC OVC///CB,0.02,WUHU216DAVISVP2,2013-11-17 08:16:00,
2013-11-17 03:21:00,54.9,53.6,29.91,SSE,153,6.0,9.0,95,0.01,,OVC OVC///CB,0.02,WUHU216DAVISVP2,2013-11-17 08:21:00,
2013-11-17 03:26:00,55.0,53.4,29.91,South,173,4.0,9.0,94,0.01,,OVC OVC///CB,0.02,WUHU216DAVISVP2,2013-11-17 08:26:00,
2013-11-17 03:31:00,55.1,53.5,29.91,SE,131,2.0,9.0,94,0.01,,OVC OVC///CB,0.02,WUHU216DAVISVP2,2013-11-17 08:31:00,
2013-11-17 03:36:00,55.1,53.5,29.91,SSW,210,9.0,9.0,94,0.00,,OVC OVC///CB,0.02,WUHU216DAVISVP2,2013-11-17 08:36:00,
2013-11-17 03:41:00,55.1,53.5,29.90,SSE,155,3.0,10.0,94,0.00,,OVC OVC///CB,0.02,WUHU216DAVISVP2,2013-11-17 08:41:00,
2013-11-17 03:46:00,55.1,53.5,29.91,SSW,200,4.0,11.0,94,0.00,,OVC OVC///CB,0.02,WUHU216DAVISVP2,2013-11-17 08:46:00,
2013-11-17 03:51:00,55.2,53.3,29.90,SSE,156,3.0,12.0,93,0.00,,OVC OVC///CB,0.02,WUHU216DAVISVP2,2013-11-17 08:51:00,
2013-11-17 03:56:00,55.2,53.3,29.90,SSW,193,4.0,13.0,93,0.00,,OVC OVC///CB,0.02,WUHU216DAVISVP2,2013-11-17 08:56:00,
2013-11-17 04:01:00,55.1,53.5,29.91,SW,216,6.0,13.0,94,0.00,,OVC OVC///CB,0.02,WUHU216DAVISVP2,2013-11-17 09:01:00,
2013-11-17 04:06:00,55.1,53.5,29.91,South,172,3.0,13.0,94,0.01,,OVC OVC///CB,0.03,WUHU216DAVISVP2,2013-11-17 09:06:00,
2013-11-17 04:11:00,55.0,53.4,29.91,SSW,210,8.0,13.0,94,0.02,,OVC OVC///CB,0.04,WUHU216DAVISVP2,2013-11-17 09:11:00,
2013-11-17 04:16:00,54.8,53.2,29.90,South,187,3.0,14.0,94,0.04,,OVC OVC///CB,0.06,WUHU216DAVISVP2,2013-11-17 09:16:00,
2013-11-17 04:21:00,54.8,53.2,29.90,SSE,154,5.0,14.0,94,0.05,,OVC OVC///CB,0.07,WUHU216DAVISVP2,2013-11-17 09:21:00,
2013-11-17 04:26:00,54.7,53.4,29.90,South,187,6.0,14.0,95,0.06,,OVC OVC///CB,0.08,WUHU216DAVISVP2,2013-11-17 09:26:00,
2013-11-17 04:31:00,54.6,53.3,29.90,SSW,195,3.0,12.0,95,0.07,,OVC OVC///CB,0.09,WUHU216DAVISVP2,2013-11-17 09:31:00,
2013-11-17 04:37:00,54.5,53.5,29.90,SSW,203,6.0,12.0,96,0.09,,OVC OVC///CB,0.11,WUHU216DAVISVP2,2013-11-17 09:37:00,
2013-11-17 04:43:00,54.5,53.5,29.90,SSE,148,5.0,13.0,96,0.10,,OVC OVC///CB,0.12,WUHU216DAVISVP2,2013-11-17 09:43:00,
2013-11-17 04:50:00,54.3,53.3,29.90,SSW,203,8.0,13.0,96,0.11,,OVC OVC///CB,0.13,WUHU216DAVISVP2,2013-11-17 09:50:00,
2013-11-17 04:56:00,54.3,53.6,29.90,SSW,210,7.0,13.0,97,0.11,,OVC OVC///CB,0.13,WUHU216DAVISVP2,2013-11-17 09:56:00,
2013-11-17 05:01:00,54.3,53.6,29.90,SSW,205,4.0,13.0,97,0.10,,OVC OVC///CB,0.13,WUHU216DAVISVP2,2013-11-17 10:01:00,
2013-11-17 05:06:00,54.2,53.5,29.90,SSE,167,4.0,13.0,97,0.10,,OVC OVC///CB,0.13,WUHU216DAVISVP2,2013-11-17 10:06:00,
2013-11-17 05:11:00,54.1,53.4,29.90,SSW,194,4.0,13.0,97,0.09,,OVC OVC///CB,0.13,WUHU216DAVISVP2,2013-11-17 10:11:00,
2013-11-17 05:16:00,54.1,53.4,29.89,South,171,3.0,10.0,97,0.07,,OVC OVC///CB,0.13,WUHU216DAVISVP2,2013-11-17 10:16:00,
2013-11-17 05:21:00,54.0,53.3,29.89,SE,143,2.0,10.0,97,0.06,,OVC OVC///CB,0.13,WUHU216DAVISVP2,2013-11-17 10:21:00,
2013-11-17 05:27:00,54.0,53.3,29.90,SSW,195,5.0,10.0,97,0.05,,OVC OVC///CB,0.13,WUHU216DAVISVP2,2013-11-17 10:27:00,
2013-11-17 05:32:00,54.0,53.3,29.90,SW,215,5.0,10.0,97,0.03,,OVC OVC///CB,0.13,WUHU216DAVISVP2,2013-11-17 10:32:00,
2013-11-17 05:37:00,54.1,53.4,29.89,South,187,4.0,11.0,97,0.02,,OVC OVC///CB,0.13,WUHU216DAVISVP2,2013-11-17 10:37:00,
2013-11-17 05:42:00,54.1,53.4,29.90,SSE,153,5.0,11.0,97,0.02,,OVC OVC///CB,0.14,WUHU216DAVISVP2,2013-11-17 10:42:00,
2013-11-17 05:47:00,54.1,53.4,29.90,SSE,159,3.0,11.0,97,0.02,,OVC OVC///CB,0.15,WUHU216DAVISVP2,2013-11-17 10:47:00,
2013-11-17 05:52:00,54.1,53.4,29.90,SSW,203,4.0,11.0,97,0.04,,OVC OVC///CB,0.17,WUHU216DAVISVP2,2013-11-17 10:52:00,
2013-11-17 05:57:00,54.1,53.4,29.91,SSW,195,4.0,10.0,97,0.07,,OVC OVC///CB,0.20,WUHU216DAVISVP2,2013-11-17 10:57:00,
2013-11-17 06:02:00,54.0,53.3,29.91,SSW,213,7.0,10.0,97,0.10,,OVC OVC///CB,0.23,WUHU216DAVISVP2,2013-11-17 11:02:00,
2013-11-17 06:07:00,53.9,53.4,29.91,WSW,242,4.0,10.0,98,0.18,,OVC OVC///CB,0.31,WUHU216DAVISVP2,2013-11-17 11:07:00,
2013-11-17 06:12:00,53.8,53.3,29.91,SW,219,5.0,10.0,98,0.22,,OVC OVC///CB,0.35,WUHU216DAVISVP2,2013-11-17 11:12:00,
2013-11-17 06:17:00,53.7,53.2,29.91,SSE,155,6.0,10.0,98,0.25,,OVC OVC///CB,0.38,WUHU216DAVISVP2,2013-11-17 11:17:00,
2013-11-17 06:22:00,53.7,53.2,29.91,SSE,154,2.0,10.0,98,0.27,,OVC OVC///CB,0.40,WUHU216DAVISVP2,2013-11-17 11:22:00,
2013-11-17 06:27:00,53.7,53.5,29.91,South,191,5.0,7.0,99,0.28,,OVC OVC///CB,0.41,WUHU216DAVISVP2,2013-11-17 11:27:00,
2013-11-17 06:32:00,53.7,53.5,29.91,South,177,2.0,7.0,99,0.30,,OVC OVC///CB,0.43,WUHU216DAVISVP2,2013-11-17 11:32:00,
2013-11-17 06:37:00,53.7,53.5,29.91,SSW,203,7.0,9.0,99,0.32,,OVC OVC///CB,0.45,WUHU216DAVISVP2,2013-11-17 11:37:00,
2013-11-17 06:42:00,53.7,53.5,29.90,SSW,205,2.0,9.0,99,0.32,,OVC OVC///CB,0.46,WUHU216DAVISVP2,2013-11-17 11:42:00,
2013-11-17 06:47:00,53.6,53.4,29.90,SSW,204,4.0,9.0,99,0.33,,OVC OVC///CB,0.48,WUHU216DAVISVP2,2013-11-17 11:47:00,
2013-11-17 06:52:00,53.6,53.4,29.90,SSE,166,3.0,9.0,99,0.32,,OVC OVC///CB,0.49,WUHU216DAVISVP2,2013-11-17 11:52:00,
2013-11-17 06:57:00,53.6,53.4,29.89,SSE,158,3.0,7.0,99,0.30,,OVC OVC///CB,0.50,WUHU216DAVISVP2,2013-11-17 11:57:00,
2013-11-17 07:02:00,53.6,53.4,29.89,SSE,159,2.0,7.0,99,0.29,,OVC OVC///CB,0.52,WUHU216DAVISVP2,2013-11-17 12:02:00,
2013-11-17 07:07:00,53.6,53.4,29.88,SSE,155,2.0,8.0,99,0.23,,OVC OVC///CB,0.54,WUHU216DAVISVP2,2013-11-17 12:07:00,
2013-11-17 07:12:00,53.6,53.4,29.88,SSE,160,3.0,8.0,99,0.20,,OVC OVC///CB,0.55,WUHU216DAVISVP2,2013-11-17 12:12:00,
2013-11-17 07:17:00,53.6,53.4,29.87,SSE,163,1.0,8.0,99,0.18,,OVC OVC///CB,0.56,WUHU216DAVISVP2,2013-11-17 12:17:00,
2013-11-17 07:22:00,53.7,53.5,29.88,SSW,199,4.0,10.0,99,0.18,,OVC OVC///CB,0.58,WUHU216DAVISVP2,2013-11-17 12:22:00,
2013-11-17 07:27:00,53.7,53.5,29.88,SSW,200,8.0,10.0,99,0.18,,OVC OVC///CB,0.59,WUHU216DAVISVP2,2013-11-17 12:27:00,
2013-11-17 07:32:00,53.8,53.6,29.88,SE,131,3.0,10.0,99,0.16,,OVC OVC///CB,0.59,WUHU216DAVISVP2,2013-11-17 12:32:00,
2013-11-17 07:37:00,53.9,53.7,29.88,SSE,149,0.0,10.0,99,0.15,,OVC OVC///CB,0.60,WUHU216DAVISVP2,2013-11-17 12:37:00,
2013-11-17 07:42:00,53.9,53.7,29.87,SSE,153,3.0,10.0,99,0.14,,OVC OVC///CB,0.60,WUHU216DAVISVP2,2013-11-17 12:42:00,
2013-11-17 07:47:00,54.0,53.8,29.86,South,179,4.0,10.0,99,0.12,,OVC OVC///CB,0.60,WUHU216DAVISVP2,2013-11-17 12:47:00,
2013-11-17 07:52:00,54.0,53.8,29.86,South,173,4.0,10.0,99,0.11,,OVC OVC///CB,0.60,WUHU216DAVISVP2,2013-11-17 12:52:00,
2013-11-17 07:57:00,54.1,53.9,29.86,SSW,204,8.0,12.0,99,0.10,,OVC OVC///CB,0.60,WUHU216DAVISVP2,2013-11-17 12:57:00,
2013-11-17 08:02:00,54.3,54.1,29.86,SW,224,3.0,13.0,99,0.08,,OVC OVC///CB,0.60,WUHU216DAVISVP2,2013-11-17 13:02:00,
2013-11-17 08:07:00,54.4,54.2,29.86,SSE,156,6.0,16.0,99,0.06,,OVC OVC///CB,0.60,WUHU216DAVISVP2,2013-11-17 13:07:00,
2013-11-17 08:12:00,54.5,54.3,29.86,South,188,10.0,16.0,99,0.05,,OVC OVC///CB,0.60,WUHU216DAVISVP2,2013-11-17 13:12:00,
2013-11-17 08:17:00,54.6,54.4,29.86,SSW,198,5.0,16.0,99,0.04,,OVC OVC///CB,0.60,WUHU216DAVISVP2,2013-11-17 13:17:00,
2013-11-17 08:22:00,54.8,54.3,29.86,SSW,200,7.0,16.0,98,0.03,,OVC OVC///CB,0.61,WUHU216DAVISVP2,2013-11-17 13:22:00,
2013-11-17 08:27:00,54.8,54.3,29.86,SE,134,1.0,15.0,98,0.02,,OVC OVC///CB,0.61,WUHU216DAVISVP2,2013-11-17 13:27:00,
2013-11-17 08:32:00,54.9,54.4,29.86,SSW,208,3.0,15.0,98,0.02,,OVC OVC///CB,0.61,WUHU216DAVISVP2,2013-11-17 13:32:00,
2013-11-17 08:37:00,55.0,54.5,29.85,SSW,212,9.0,16.0,98,0.01,,OVC OVC///CB,0.61,WUHU216DAVISVP2,2013-11-17 13:37:00,
2013-11-17 08:42:00,55.1,54.6,29.85,South,174,2.0,16.0,98,0.01,,OVC OVC///CB,0.61,WUHU216DAVISVP2,2013-11-17 13:42:00,
2013-11-17 08:47:00,55.2,54.7,29.85,SSW,207,3.0,15.0,98,0.01,,OVC OVC///CB,0.61,WUHU216DAVISVP2,2013-11-17 13:47:00,
2013-11-17 08:52:00,55.2,54.4,29.86,SSW,195,9.0,15.0,97,0.01,,OVC OVC///CB,0.61,WUHU216DAVISVP2,2013-11-17 13:52:00,
2013-11-17 08:57:00,55.3,54.5,29.85,SSE,155,3.0,13.0,97,0.01,,OVC OVC///CB,0.61,WUHU216DAVISVP2,2013-11-17 13:57:00,
2013-11-17 09:02:00,55.5,54.7,29.85,SSW,199,5.0,14.0,97,0.01,,OVC OVC///CB,0.61,WUHU216DAVISVP2,2013-11-17 14:02:00,
2013-11-17 09:07:00,55.7,54.9,29.85,SSW,203,7.0,16.0,97,0.01,,OVC OVC///CB,0.61,WUHU216DAVISVP2,2013-11-17 14:07:00,
2013-11-17 09:12:00,55.8,54.8,29.85,South,187,6.0,16.0,96,0.01,,OVC OVC///CB,0.61,WUHU216DAVISVP2,2013-11-17 14:12:00,
2013-11-17 09:17:00,55.9,54.9,29.84,SSW,193,4.0,16.0,96,0.01,,OVC OVC///CB,0.61,WUHU216DAVISVP2,2013-11-17 14:17:00,
2013-11-17 09:22:00,56.1,55.1,29.85,WSW,246,8.0,16.0,96,0.00,,OVC OVC///CB,0.61,WUHU216DAVISVP2,2013-11-17 14:22:00,
2013-11-17 09:27:00,56.3,55.3,29.85,SSW,207,12.0,16.0,96,0.00,,OVC OVC///CB,0.61,WUHU216DAVISVP2,2013-11-17 14:27:00,
2013-11-17 09:32:00,56.5,55.2,29.84,SSW,198,4.0,16.0,95,0.00,,OVC OVC///CB,0.61,WUHU216DAVISVP2,2013-11-17 14:32:00,
2013-11-17 09:37:00,56.7,55.4,29.84,SSW,207,9.0,23.0,95,0.00,,OVC OVC///CB,0.61,WUHU216DAVISVP2,2013-11-17 14:37:00,
2013-11-17 09:42:00,56.9,55.6,29.84,SSW,203,7.0,23.0,95,0.00,,OVC OVC///CB,0.61,WUHU216DAVISVP2,2013-11-17 14:42:00,
2013-11-17 09:47:00,57.0,55.7,29.84,South,183,7.0,23.0,95,0.00,,OVC OVC///CB,0.61,WUHU216DAVISVP2,2013-11-17 14:47:00,
2013-11-17 09:52:00,57.1,55.8,29.84,SSW,212,6.0,23.0,95,0.00,,OVC OVC///CB,0.61,WUHU216DAVISVP2,2013-11-17 14:52:00,
2013-11-17 09:57:00,57.1,55.8,29.84,WSW,242,10.0,18.0,95,0.00,,OVC OVC///CB,0.61,WUHU216DAVISVP2,2013-11-17 14:57:00,
2013-11-17 10:02:00,57.2,55.9,29.85,SSW,201,7.0,17.0,95,0.00,,OVC OVC///CB,0.61,WUHU216DAVISVP2,2013-11-17 15:02:00,
2013-11-17 10:07:00,57.2,55.9,29.85,SW,226,10.0,17.0,95,0.00,,OVC OVC///CB,0.61,WUHU216DAVISVP2,2013-11-17 15:07:00,
2013-11-17 10:12:00,57.3,56.0,29.84,SSW,203,7.0,19.0,95,0.00,,OVC OVC///CB,0.61,WUHU216DAVISVP2,2013-11-17 15:12:00,
2013-11-17 10:17:00,57.3,56.0,29.84,SSW,198,4.0,19.0,95,0.00,,OVC OVC///CB,0.61,WUHU216DAVISVP2,2013-11-17 15:17:00,
2013-11-17 10:22:00,57.4,56.1,29.84,SW,222,6.0,19.0,95,0.00,,OVC OVC///CB,0.61,WUHU216DAVISVP2,2013-11-17 15:22:00,
2013-11-17 10:27:00,57.4,56.1,29.85,WSW,240,6.0,19.0,95,0.00,,OVC OVC///CB,0.61,WUHU216DAVISVP2,2013-11-17 15:27:00,
2013-11-17 10:32:00,57.3,56.0,29.85,SW,215,4.0,15.0,95,0.00,,OVC OVC///CB,0.61,WUHU216DAVISVP2,2013-11-17 15:32:00,
2013-11-17 10:37:00,57.2,56.2,29.85,SW,221,5.0,15.0,96,0.00,,OVC OVC///CB,0.61,WUHU216DAVISVP2,2013-11-17 15:37:00,
2013-11-17 10:42:00,57.2,56.2,29.85,SW,228,6.0,16.0,96,0.00,,OVC OVC///CB,0.61,WUHU216DAVISVP2,2013-11-17 15:42:00,
2013-11-17 10:47:00,57.1,56.1,29.84,SSW,201,10.0,17.0,96,0.00,,OVC OVC///CB,0.61,WUHU216DAVISVP2,2013-11-17 15:47:00,
2013-11-17 10:52:00,57.2,56.2,29.84,SSW,210,7.0,17.0,96,0.00,,OVC OVC///CB,0.61,WUHU216DAVISVP2,2013-11-17 15:52:00,
2013-11-17 10:57:00,57.3,56.3,29.83,SSW,207,7.0,17.0,96,0.00,,OVC OVC///CB,0.61,WUHU216DAVISVP2,2013-11-17 15:57:00,
2013-11-17 11:02:00,57.3,56.3,29.83,South,181,8.0,17.0,96,0.00,,OVC OVC///CB,0.61,WUHU216DAVISVP2,2013-11-17 16:02:00,
2013-11-17 11:07:00,57.3,56.3,29.83,SSW,195,9.0,17.0,96,0.00,,OVC OVC///CB,0.61,WUHU216DAVISVP2,2013-11-17 16:07:00,
2013-11-17 11:12:00,57.2,56.2,29.82,SSW,204,7.0,16.0,96,0.00,,OVC OVC///CB,0.61,WUHU216DAVISVP2,2013-11-17 16:12:00,
2013-11-17 11:17:00,57.3,56.3,29.82,South,189,5.0,16.0,96,0.00,,OVC OVC///CB,0.61,WUHU216DAVISVP2,2013-11-17 16:17:00,
2013-11-17 11:22:00,57.3,56.3,29.82,SSW,203,5.0,15.0,96,0.00,,OVC OVC///CB,0.61,WUHU216DAVISVP2,2013-11-17 16:22:00,
2013-11-17 11:27:00,57.3,56.3,29.82,SSE,153,6.0,15.0,96,0.00,,OVC OVC///CB,0.61,WUHU216DAVISVP2,2013-11-17 16:27:00,
2013-11-17 11:32:00,57.3,56.3,29.82,South,191,6.0,15.0,96,0.00,,OVC OVC///CB,0.61,WUHU216DAVISVP2,2013-11-17 16:32:00,
2013-11-17 11:37:00,57.3,56.3,29.80,South,181,6.0,15.0,96,0.00,,OVC OVC///CB,0.61,WUHU216DAVISVP2,2013-11-17 16:37:00,
2013-11-17 11:42:00,57.4,56.4,29.80,SSW,212,5.0,17.0,96,0.00,,OVC OVC///CB,0.61,WUHU216DAVISVP2,2013-11-17 16:42:00,
2013-11-17 11:47:00,57.5,56.5,29.80,SSE,158,6.0,17.0,96,0.00,,OVC OVC///CB,0.61,WUHU216DAVISVP2,2013-11-17 16:47:00,
2013-11-17 11:52:00,57.6,56.6,29.80,South,190,5.0,18.0,96,0.00,,OVC OVC///CB,0.61,WUHU216DAVISVP2,2013-11-17 16:52:00,
2013-11-17 11:57:00,57.8,56.7,29.81,SW,235,7.0,18.0,96,0.00,,OVC OVC///CB,0.61,WUHU216DAVISVP2,2013-11-17 16:57:00,
2013-11-17 12:02:00,57.9,56.8,29.80,SW,232,10.0,18.0,96,0.00,,OVC OVC///CB,0.61,WUHU216DAVISVP2,2013-11-17 17:02:00,
2013-11-17 12:07:00,58.1,56.8,29.79,SSW,208,10.0,19.0,95,0.00,,OVC OVC///CB,0.61,WUHU216DAVISVP2,2013-11-17 17:07:00,
2013-11-17 12:12:00,58.2,56.9,29.79,South,177,12.0,20.0,95,0.00,,OVC OVC///CB,0.61,WUHU216DAVISVP2,2013-11-17 17:12:00,
2013-11-17 12:17:00,58.4,57.1,29.78,SSE,148,5.0,20.0,95,0.00,,OVC OVC///CB,0.61,WUHU216DAVISVP2,2013-11-17 17:17:00,
2013-11-17 12:22:00,58.6,57.0,29.78,SW,217,3.0,20.0,94,0.00,,OVC OVC///CB,0.61,WUHU216DAVISVP2,2013-11-17 17:22:00,
2013-11-17 12:27:00,58.8,57.2,29.78,SW,221,12.0,24.0,94,0.00,,OVC OVC///CB,0.61,WUHU216DAVISVP2,2013-11-17 17:27:00,
2013-11-17 12:32:00,59.0,57.1,29.78,SSW,212,8.0,24.0,93,0.00,,OVC OVC///CB,0.61,WUHU216DAVISVP2,2013-11-17 17:32:00,
2013-11-17 12:37:00,59.1,57.2,29.77,South,188,17.0,24.0,93,0.00,,OVC OVC///CB,0.61,WUHU216DAVISVP2,2013-11-17 17:37:00,
2013-11-17 12:42:00,59.2,57.3,29.76,South,176,3.0,24.0,93,0.00,,OVC OVC///CB,0.61,WUHU216DAVISVP2,2013-11-17 17:42:00,
2013-11-17 12:47:00,59.3,57.4,29.76,SSW,205,11.0,21.0,93,0.00,,OVC OVC///CB,0.61,WUHU216DAVISVP2,2013-11-17 17:47:00,
2013-11-17 12:52:00,59.5,57.6,29.75,South,188,7.0,21.0,93,0.00,,OVC OVC///CB,0.61,WUHU216DAVISVP2,2013-11-17 17:52:00,
2013-11-17 12:57:00,59.6,57.4,29.75,SW,226,11.0,21.0,92,0.00,,OVC OVC///CB,0.61,WUHU216DAVISVP2,2013-11-17 17:57:00,
2013-11-17 13:02:00,59.7,57.5,29.74,SSE,165,11.0,21.0,92,0.00,,OVC OVC///CB,0.61,WUHU216DAVISVP2,2013-11-17 18:02:00,
2013-11-17 13:07:00,59.7,57.5,29.74,South,183,7.0,21.0,92,0.00,,OVC OVC///CB,0.61,WUHU216DAVISVP2,2013-11-17 18:07:00,
2013-11-17 13:12:00,59.8,57.6,29.74,West,260,6.0,20.0,92,0.00,,OVC OVC///CB,0.61,WUHU216DAVISVP2,2013-11-17 18:12:00,
2013-11-17 13:17:00,60.1,57.9,29.73,SSW,200,8.0,21.0,92,0.00,,OVC OVC///CB,0.61,WUHU216DAVISVP2,2013-11-17 18:17:00,
2013-11-17 13:22:00,60.3,57.7,29.73,South,187,7.0,24.0,91,0.00,,OVC OVC///CB,0.61,WUHU216DAVISVP2,2013-11-17 18:22:00,
2013-11-17 13:27:00,60.2,57.7,29.73,SW,215,6.0,24.0,91,0.00,,OVC OVC///CB,0.61,WUHU216DAVISVP2,2013-11-17 18:27:00,
2013-11-17 13:32:00,60.1,57.6,29.73,SW,219,11.0,24.0,91,0.00,,OVC OVC///CB,0.61,WUHU216DAVISVP2,2013-11-17 18:32:00,
2013-11-17 13:37:00,60.0,57.8,29.73,South,170,5.0,24.0,92,0.00,,OVC OVC///CB,0.61,WUHU216DAVISVP2,2013-11-17 18:37:00,
2013-11-17 13:42:00,59.9,57.7,29.73,SW,229,7.0,21.0,92,0.00,,OVC OVC///CB,0.61,WUHU216DAVISVP2,2013-11-17 18:42:00,
2013-11-17 13:47:00,59.9,57.7,29.72,SSW,197,6.0,21.0,92,0.00,,OVC OVC///CB,0.61,WUHU216DAVISVP2,2013-11-17 18:47:00,
2013-11-17 13:52:00,59.9,57.7,29.71,South,186,6.0,24.0,92,0.00,,OVC OVC///CB,0.61,WUHU216DAVISVP2,2013-11-17 18:52:00,
2013-11-17 13:57:00,59.6,57.7,29.71,SSW,203,10.0,24.0,93,0.00,,OVC OVC///CB,0.61,WUHU216DAVISVP2,2013-11-17 18:57:00,
2013-11-17 14:02:00,59.1,57.5,29.69,SW,226,10.0,24.0,94,0.01,,OVC OVC///CB,0.62,WUHU216DAVISVP2,2013-11-17 19:02:00,
2013-11-17 14:07:00,58.9,57.6,29.68,SSE,166,5.0,26.0,95,0.01,,OVC OVC///CB,0.62,WUHU216DAVISVP2,2013-11-17 19:07:00,
2013-11-17 14:12:00,58.8,57.5,29.68,WSW,240,2.0,26.0,95,0.01,,OVC OVC///CB,0.62,WUHU216DAVISVP2,2013-11-17 19:12:00,
2013-11-17 14:17:00,58.8,57.5,29.67,SE,132,5.0,26.0,95,0.01,,OVC OVC///CB,0.62,WUHU216DAVISVP2,2013-11-17 19:17:00,
2013-11-17 14:22:00,58.8,57.5,29.67,SSE,166,4.0,17.0,95,0.01,,OVC OVC///CB,0.62,WUHU216DAVISVP2,2013-11-17 19:22:00,
2013-11-17 14:27:00,58.9,57.6,29.68,SSW,203,7.0,17.0,95,0.01,,OVC OVC///CB,0.62,WUHU216DAVISVP2,2013-11-17 19:27:00,
2013-11-17 14:32:00,59.0,57.7,29.69,SSW,193,12.0,17.0,95,0.01,,OVC OVC///CB,0.62,WUHU216DAVISVP2,2013-11-17 19:32:00,
2013-11-17 14:37:00,59.0,57.7,29.68,SSW,201,11.0,17.0,95,0.01,,OVC OVC///CB,0.62,WUHU216DAVISVP2,2013-11-17 19:37:00,
2013-11-17 14:42:00,59.1,57.5,29.68,South,172,6.0,17.0,94,0.01,,OVC OVC///CB,0.62,WUHU216DAVISVP2,2013-11-17 19:42:00,
2013-11-17 14:47:00,59.2,57.6,29.68,SE,141,7.0,18.0,94,0.01,,OVC OVC///CB,0.62,WUHU216DAVISVP2,2013-11-17 19:47:00,
2013-11-17 14:52:00,59.3,57.7,29.68,South,191,5.0,18.0,94,0.01,,OVC OVC///CB,0.62,WUHU216DAVISVP2,2013-11-17 19:52:00,
2013-11-17 14:57:00,59.4,57.5,29.68,SW,231,16.0,19.0,93,0.01,,OVC OVC///CB,0.62,WUHU216DAVISVP2,2013-11-17 19:57:00,
2013-11-17 15:02:00,59.5,57.6,29.67,ESE,109,5.0,19.0,93,0.00,,OVC OVC///CB,0.62,WUHU216DAVISVP2,2013-11-17 20:02:00,
2013-11-17 15:07:00,59.7,57.8,29.66,SSW,203,6.0,20.0,93,0.00,,OVC OVC///CB,0.62,WUHU216DAVISVP2,2013-11-17 20:07:00,
2013-11-17 15:12:00,59.8,57.6,29.66,South,179,6.0,22.0,92,0.00,,OVC OVC///CB,0.62,WUHU216DAVISVP2,2013-11-17 20:12:00,
2013-11-17 15:17:00,59.8,57.6,29.65,SSW,197,11.0,22.0,92,0.00,,OVC OVC///CB,0.62,WUHU216DAVISVP2,2013-11-17 20:17:00,
2013-11-17 15:22:00,59.8,57.6,29.64,SSW,200,8.0,22.0,92,0.00,,OVC OVC///CB,0.62,WUHU216DAVISVP2,2013-11-17 20:22:00,
2013-11-17 15:27:00,59.9,57.7,29.65,SW,228,8.0,22.0,92,0.00,,OVC OVC///CB,0.62,WUHU216DAVISVP2,2013-11-17 20:27:00,
2013-11-17 15:32:00,60.2,58.0,29.64,SW,221,8.0,24.0,92,0.00,,OVC OVC///CB,0.62,WUHU216DAVISVP2,2013-11-17 20:32:00,
2013-11-17 15:37:00,60.3,58.1,29.63,SSW,204,5.0,24.0,92,0.00,,OVC OVC///CB,0.62,WUHU216DAVISVP2,2013-11-17 20:37:00,
2013-11-17 15:42:00,60.5,57.9,29.62,SSE,158,11.0,24.0,91,0.00,,OVC OVC///CB,0.62,WUHU216DAVISVP2,2013-11-17 20:42:00,
2013-11-17 15:47:00,60.5,57.9,29.62,South,188,13.0,29.0,91,0.00,,OVC OVC///CB,0.62,WUHU216DAVISVP2,2013-11-17 20:47:00,
2013-11-17 15:52:00,60.6,58.0,29.62,SSE,166,5.0,29.0,91,0.00,,OVC OVC///CB,0.62,WUHU216DAVISVP2,2013-11-17 20:52:00,
2013-11-17 15:57:00,60.7,58.1,29.62,SSW,199,12.0,29.0,91,0.00,,OVC OVC///CB,0.62,WUHU216DAVISVP2,2013-11-17 20:57:00,
2013-11-17 16:02:00,60.7,58.1,29.61,South,190,12.0,29.0,91,0.00,,OVC OVC///CB,0.62,WUHU216DAVISVP2,2013-11-17 21:02:00,
2013-11-17 16:07:00,60.7,58.1,29.61,SSW,197,22.0,28.0,91,0.00,,OVC OVC///CB,0.62,WUHU216DAVISVP2,2013-11-17 21:07:00,
2013-11-17 16:12:00,60.7,58.1,29.61,WSW,252,5.0,28.0,91,0.00,,OVC OVC///CB,0.62,WUHU216DAVISVP2,2013-11-17 21:12:00,
2013-11-17 16:17:00,60.6,58.0,29.60,WSW,248,6.0,28.0,91,0.00,,OVC OVC///CB,0.62,WUHU216DAVISVP2,2013-11-17 21:17:00,
2013-11-17 16:22:00,60.5,57.9,29.60,SSW,195,8.0,27.0,91,0.00,,OVC OVC///CB,0.62,WUHU216DAVISVP2,2013-11-17 21:22:00,
2013-11-17 16:27:00,60.4,57.8,29.59,South,179,9.0,26.0,91,0.00,,OVC OVC///CB,0.62,WUHU216DAVISVP2,2013-11-17 21:27:00,
2013-11-17 16:32:00,60.5,57.9,29.59,SW,236,8.0,26.0,91,0.00,,OVC OVC///CB,0.62,WUHU216DAVISVP2,2013-11-17 21:32:00,
2013-11-17 16:37:00,60.3,58.1,29.59,SSW,204,8.0,26.0,92,0.00,,OVC OVC///CB,0.62,WUHU216DAVISVP2,2013-11-17 21:37:00,
2013-11-17 16:42:00,60.3,58.1,29.59,South,188,6.0,26.0,92,0.00,,OVC OVC///CB,0.62,WUHU216DAVISVP2,2013-11-17 21:42:00,
2013-11-17 16:47:00,60.3,58.1,29.60,SSW,210,6.0,26.0,92,0.00,,OVC OVC///CB,0.62,WUHU216DAVISVP2,2013-11-17 21:47:00,
2013-11-17 16:52:00,60.4,58.1,29.60,SSW,203,6.0,26.0,92,0.00,,OVC OVC///CB,0.62,WUHU216DAVISVP2,2013-11-17 21:52:00,
2013-11-17 16:57:00,60.4,58.1,29.60,SSW,205,9.0,22.0,92,0.00,,OVC OVC///CB,0.62,WUHU216DAVISVP2,2013-11-17 21:57:00,
2013-11-17 17:02:00,60.4,57.8,29.60,SW,226,4.0,23.0,91,0.00,,OVC OVC///CB,0.62,WUHU216DAVISVP2,2013-11-17 22:02:00,
2013-11-17 17:07:00,60.5,57.9,29.59,South,190,7.0,24.0,91,0.00,,OVC OVC///CB,0.62,WUHU216DAVISVP2,2013-11-17 22:07:00,
2013-11-17 17:12:00,60.4,57.8,29.59,SE,141,5.0,24.0,91,0.00,,OVC OVC///CB,0.62,WUHU216DAVISVP2,2013-11-17 22:12:00,
2013-11-17 17:17:00,60.4,57.8,29.58,SW,217,11.0,24.0,91,0.00,,OVC OVC///CB,0.62,WUHU216DAVISVP2,2013-11-17 22:17:00,
2013-11-17 17:22:00,60.4,57.8,29.57,SSW,195,14.0,24.0,91,0.00,,OVC OVC///CB,0.62,WUHU216DAVISVP2,2013-11-17 22:22:00,
2013-11-17 17:27:00,60.4,57.8,29.58,SW,233,10.0,23.0,91,0.00,,OVC OVC///CB,0.62,WUHU216DAVISVP2,2013-11-17 22:27:00,
2013-11-17 17:32:00,60.5,57.9,29.58,West,270,9.0,27.0,91,0.00,,OVC OVC///CB,0.62,WUHU216DAVISVP2,2013-11-17 22:32:00,
2013-11-17 17:37:00,60.5,57.9,29.59,SW,226,5.0,27.0,91,0.00,,OVC OVC///CB,0.62,WUHU216DAVISVP2,2013-11-17 22:37:00,
2013-11-17 17:42:00,60.5,57.9,29.59,SSW,193,9.0,27.0,91,0.00,,OVC OVC///CB,0.62,WUHU216DAVISVP2,2013-11-17 22:42:00,
2013-11-17 17:47:00,60.3,58.1,29.59,SW,221,8.0,27.0,92,0.00,,OVC OVC///CB,0.62,WUHU216DAVISVP2,2013-11-17 22:47:00,
2013-11-17 17:52:00,59.9,58.0,29.60,South,180,9.0,25.0,93,0.02,,OVC OVC///CB,0.64,WUHU216DAVISVP2,2013-11-17 22:52:00,
2013-11-17 17:57:00,59.4,58.0,29.60,SSW,193,13.0,25.0,95,0.03,,OVC OVC///CB,0.65,WUHU216DAVISVP2,2013-11-17 22:57:00,
2013-11-17 18:02:00,59.1,57.8,29.58,SW,221,6.0,25.0,95,0.06,,OVC OVC///CB,0.68,WUHU216DAVISVP2,2013-11-17 23:02:00,
2013-11-17 18:07:00,58.9,57.8,29.56,SSW,199,16.0,18.0,96,0.09,,OVC OVC///CB,0.71,WUHU216DAVISVP2,2013-11-17 23:07:00,
2013-11-17 18:12:00,58.7,57.6,29.56,ESE,117,7.0,17.0,96,0.09,,OVC OVC///CB,0.71,WUHU216DAVISVP2,2013-11-17 23:12:00,
2013-11-17 18:17:00,58.6,57.8,29.55,SW,217,4.0,17.0,97,0.09,,OVC OVC///CB,0.71,WUHU216DAVISVP2,2013-11-17 23:17:00,
2013-11-17 18:22:00,58.6,57.8,29.55,South,190,11.0,18.0,97,0.09,,OVC OVC///CB,0.71,WUHU216DAVISVP2,2013-11-17 23:22:00,
2013-11-17 18:27:00,58.5,57.7,29.54,SSW,204,8.0,18.0,97,0.09,,OVC OVC///CB,0.71,WUHU216DAVISVP2,2013-11-17 23:27:00,
2013-11-17 18:32:00,58.5,57.7,29.52,SSW,213,5.0,19.0,97,0.09,,OVC OVC///CB,0.71,WUHU216DAVISVP2,2013-11-17 23:32:00,
2013-11-17 18:37:00,58.6,57.8,29.52,SSE,166,8.0,20.0,97,0.09,,OVC OVC///CB,0.71,WUHU216DAVISVP2,2013-11-17 23:37:00,
2013-11-17 18:42:00,58.7,57.9,29.52,SSE,150,8.0,23.0,97,0.09,,OVC OVC///CB,0.71,WUHU216DAVISVP2,2013-11-17 23:42:00,
2013-11-17 18:47:00,59.0,58.2,29.52,SSW,207,16.0,25.0,97,0.09,,OVC OVC///CB,0.71,WUHU216DAVISVP2,2013-11-17 23:47:00,
2013-11-17 18:52:00,59.2,58.1,29.51,SSW,205,9.0,25.0,96,0.07,,OVC OVC///CB,0.71,WUHU216DAVISVP2,2013-11-17 23:52:00,
2013-11-17 18:57:00,59.2,58.1,29.51,SSW,205,11.0,25.0,96,0.06,,OVC OVC///CB,0.71,WUHU216DAVISVP2,2013-11-17 23:57:00,
2013-11-17 19:02:00,59.2,58.1,29.51,South,188,7.0,25.0,96,0.04,,OVC OVC///CB,0.72,WUHU216DAVISVP2,2013-11-18 00:02:00,
2013-11-17 19:07:00,59.2,58.1,29.50,South,190,14.0,24.0,96,0.01,,OVC OVC///CB,0.72,WUHU216DAVISVP2,2013-11-18 00:07:00,
2013-11-17 19:12:00,59.2,58.1,29.49,SSE,155,9.0,24.0,96,0.01,,OVC OVC///CB,0.72,WUHU216DAVISVP2,2013-11-18 00:12:00,
2013-11-17 19:17:00,59.2,58.4,29.50,SSE,153,6.0,23.0,97,0.01,,OVC OVC///CB,0.72,WUHU216DAVISVP2,2013-11-18 00:17:00,
2013-11-17 19:22:00,59.2,58.4,29.49,South,169,8.0,19.0,97,0.01,,OVC OVC///CB,0.72,WUHU216DAVISVP2,2013-11-18 00:22:00,
2013-11-17 19:27:00,59.1,58.3,29.48,SW,229,17.0,22.0,97,0.01,,OVC OVC///CB,0.72,WUHU216DAVISVP2,2013-11-18 00:27:00,
2013-11-17 19:32:00,59.2,58.4,29.48,South,187,12.0,23.0,97,0.02,,OVC OVC///CB,0.73,WUHU216DAVISVP2,2013-11-18 00:32:00,
2013-11-17 19:37:00,59.2,58.4,29.46,South,191,11.0,23.0,97,0.02,,OVC OVC///CB,0.73,WUHU216DAVISVP2,2013-11-18 00:37:00,
2013-11-17 19:42:00,59.1,58.3,29.47,SW,229,4.0,23.0,97,0.02,,OVC OVC///CB,0.73,WUHU216DAVISVP2,2013-11-18 00:42:00,
2013-11-17 19:47:00,59.2,58.4,29.47,SSW,194,5.0,23.0,97,0.02,,OVC OVC///CB,0.73,WUHU216DAVISVP2,2013-11-18 00:47:00,
2013-11-17 19:52:00,59.3,58.5,29.45,SSW,195,8.0,23.0,97,0.02,,OVC OVC///CB,0.73,WUHU216DAVISVP2,2013-11-18 00:52:00,
2013-11-17 19:57:00,59.3,58.5,29.45,South,186,7.0,23.0,97,0.02,,OVC OVC///CB,0.73,WUHU216DAVISVP2,2013-11-18 00:57:00,
2013-11-17 20:02:00,59.5,58.7,29.45,SSW,204,10.0,22.0,97,0.01,,OVC OVC///CB,0.73,WUHU216DAVISVP2,2013-11-18 01:02:00,
2013-11-17 20:07:00,59.7,58.9,29.45,South,186,17.0,21.0,97,0.01,,OVC OVC///CB,0.73,WUHU216DAVISVP2,2013-11-18 01:07:00,
2013-11-17 20:12:00,60.0,58.9,29.45,South,181,11.0,21.0,96,0.01,,OVC OVC///CB,0.73,WUHU216DAVISVP2,2013-11-18 01:12:00,
2013-11-17 20:17:00,60.2,58.8,29.45,SSW,204,6.0,30.0,95,0.01,,OVC OVC///CB,0.73,WUHU216DAVISVP2,2013-11-18 01:17:00,
2013-11-17 20:22:00,60.3,58.9,29.47,SW,217,15.0,30.0,95,0.01,,OVC OVC///CB,0.73,WUHU216DAVISVP2,2013-11-18 01:22:00,
2013-11-17 20:27:00,60.7,59.0,29.47,West,280,24.0,30.0,94,0.01,,OVC OVC///CB,0.73,WUHU216DAVISVP2,2013-11-18 01:27:00,
2013-11-17 20:32:00,55.9,52.8,29.54,WNW,282,9.0,32.0,89,0.08,,OVC OVC///CB,0.81,WUHU216DAVISVP2,2013-11-18 01:32:00,
2013-11-17 22:07:00,57.0,50.4,29.52,West,269,7.0,19.0,78,0.00,,OVC OVC///CB,0.87,WUHU216DAVISVP2,2013-11-18 03:07:00,
2013-11-17 22:12:00,57.3,49.0,29.53,West,266,7.0,27.0,73,0.00,,OVC OVC///CB,0.87,WUHU216DAVISVP2,2013-11-18 03:12:00,
2013-11-17 22:17:00,57.1,48.8,29.54,SW,233,8.0,27.0,73,0.00,,OVC OVC///CB,0.87,WUHU216DAVISVP2,2013-11-18 03:17:00,
2013-11-17 22:22:00,56.9,48.9,29.54,West,277,7.0,27.0,74,0.00,,OVC OVC///CB,0.87,WUHU216DAVISVP2,2013-11-18 03:22:00,
2013-11-17 22:27:00,56.6,47.9,29.55,WSW,248,12.0,27.0,72,0.00,,OVC OVC///CB,0.87,WUHU216DAVISVP2,2013-11-18 03:27:00,
2013-11-17 22:32:00,56.2,47.2,29.55,WSW,255,6.0,26.0,71,0.00,,OVC OVC///CB,0.87,WUHU216DAVISVP2,2013-11-18 03:32:00,
2013-11-17 22:37:00,55.5,46.5,29.55,WSW,240,7.0,26.0,71,0.00,,OVC OVC///CB,0.87,WUHU216DAVISVP2,2013-11-18 03:37:00,
2013-11-17 22:42:00,55.1,46.5,29.56,WSW,248,10.0,26.0,72,0.00,,OVC OVC///CB,0.87,WUHU216DAVISVP2,2013-11-18 03:42:00,
2013-11-17 22:47:00,54.6,46.4,29.57,West,276,8.0,26.0,73,0.00,,OVC OVC///CB,0.87,WUHU216DAVISVP2,2013-11-18 03:47:00,
2013-11-17 22:52:00,54.1,46.2,29.58,WSW,255,14.0,23.0,74,0.00,,OVC OVC///CB,0.87,WUHU216DAVISVP2,2013-11-18 03:52:00,
2013-11-17 22:57:00,53.8,45.9,29.58,SW,236,19.0,30.0,74,0.00,,OVC OVC///CB,0.87,WUHU216DAVISVP2,2013-11-18 03:57:00,
2013-11-17 23:02:00,53.4,45.6,29.59,West,272,12.0,30.0,74,0.00,,OVC OVC///CB,0.87,WUHU216DAVISVP2,2013-11-18 04:02:00,
2013-11-17 23:07:00,53.1,45.9,29.59,West,259,11.0,29.0,76,0.00,,OVC OVC///CB,0.87,WUHU216DAVISVP2,2013-11-18 04:07:00,
2013-11-17 23:12:00,52.9,45.4,29.59,WNW,284,5.0,29.0,75,0.00,,OVC OVC///CB,0.87,WUHU216DAVISVP2,2013-11-18 04:12:00,
2013-11-17 23:17:00,52.7,45.6,29.59,WSW,240,6.0,28.0,76,0.00,,OVC OVC///CB,0.87,WUHU216DAVISVP2,2013-11-18 04:17:00,
2013-11-17 23:22:00,52.6,45.5,29.60,West,260,6.0,27.0,76,0.00,,OVC OVC///CB,0.87,WUHU216DAVISVP2,2013-11-18 04:22:00,
2013-11-17 23:27:00,52.4,44.9,29.60,WSW,257,9.0,27.0,75,0.00,,OVC OVC///CB,0.87,WUHU216DAVISVP2,2013-11-18 04:27:00,
2013-11-17 23:32:00,52.4,44.9,29.61,West,278,7.0,23.0,75,0.00,,OVC OVC///CB,0.87,WUHU216DAVISVP2,2013-11-18 04:32:00,
2013-11-17 23:37:00,52.2,44.7,29.60,WSW,245,8.0,23.0,75,0.00,,OVC OVC///CB,0.87,WUHU216DAVISVP2,2013-11-18 04:37:00,
2013-11-17 23:42:00,52.0,44.9,29.61,West,266,5.0,23.0,76,0.00,,OVC OVC///CB,0.87,WUHU216DAVISVP2,2013-11-18 04:42:00,
2013-11-17 23:47:00,51.9,45.1,29.60,WSW,252,11.0,23.0,77,0.00,,OVC OVC///CB,0.87,WUHU216DAVISVP2,2013-11-18 04:47:00,
2013-11-17 23:52:00,51.8,45.0,29.60,SSW,213,4.0,19.0,77,0.00,,OVC OVC///CB,0.87,WUHU216DAVISVP2,2013-11-18 04:52:00,
2013-11-17 23:57:00,51.6,44.8,29.60,WSW,248,6.0,20.0,77,0.00,,OVC OVC///CB,0.87,WUHU216DAVISVP2,2013-11-18 04:57:00,